Regional Weather Roundup
Issued by NWS Upton, NY

Current Version | Previous Version | Text Only | Print | Product List | Glossary On
Versions: 1 2 3 4 5 6 7 8 9 10 11 12 13 14 15 16 17 18 19 20 21 22 23 24 25 26 27
000
ASUS41 KOKX 250005
RWROKX

Regional Weather Roundup
National Weather Service New York NY
800 PM EDT TUE APR 24 2018

Note: "FAIR" indicates few or no clouds below 12,000 feet with no
significant weather and/or obstructions to visibility.

NYZ071-072-176-178-NJZ106-104-250100-
New York City Metro Area

CITY           SKY/WX    TMP DP  RH WIND       PRES   REMARKS
Central Park   CLOUDY    58  39  49 SE8G17    30.25S
Bronx Bot Gard   N/A     55  37  50 E8        30.25F
Bronx Lehman C   N/A     57  39  51 SE9         N/A
LaGuardia Arpt CLOUDY    58  39  49 SE12      30.22S
Queens College   N/A     55  39  54 SE14        N/A
Kennedy Intl   CLOUDY    55  42  61 E15       30.23F
Breezy Point     N/A     50 N/A N/A E13         N/A
Brooklyn Coll    N/A     54  41  62 E12         N/A
Staten Island    N/A     54  43  66 SE12        N/A
Newark/Liberty CLOUDY    57  41  55 SE8       30.22F
Teterboro      CLOUDY    59  40  49 SE7       30.21S
$$

NYZ177-179-078>081-250100-
Long Island New York

CITY           SKY/WX    TMP DP  RH WIND       PRES   REMARKS
Jones Beach      N/A     52 N/A N/A SE12        N/A
Wantagh          N/A     54  43  66 E13         N/A
Hempstead        N/A     55  43  62 E8        30.26F
Matinecock Pt    N/A     55 N/A N/A SE9         N/A
Farmingdale    CLOUDY    55  42  61 SE13      30.24S
MacArthur/ISP  CLOUDY    54  42  64 SE12G21   30.24F
Stony Brook      N/A     55  37  50 SE8         N/A
Shirley        CLOUDY    53  43  68 SE8       30.26F
Mt Sinai Harb    N/A    N/A N/A N/A SE7         N/A
Westhampton    CLOUDY    53  40  61 SE10      30.27F
East Hampton   CLOUDY    50  40  69 SE9       30.27S
Southold         N/A     54  41  62 SE8         N/A
Montauk          N/A     52  43  71 SE8       30.29F
$$

NYZ052-065-067-250100-
Hudson Valley

CITY           SKY/WX    TMP DP  RH WIND       PRES   REMARKS
White Plains   CLOUDY    55  38  52 SE10      30.23S
Larchmont Harb   N/A     54 N/A N/A E10         N/A
Croton On Huds   N/A     59 N/A N/A E8          N/A
Somers           N/A     55  39  54 SE9         N/A
Brewster         N/A     55  39  54 S5          N/A
Newburgh       MOCLDY    57  43  58 VRB6      30.22S
Montgomery     FAIR      58  40  51 S8        30.19S
Otisville        N/A     55  41  58 S8          N/A
Warwick          N/A     57  41  54 SE6         N/A
Suffern          N/A     55  41  58 SE3         N/A
Poughkeepsie   FAIR      59  39  47 S6        30.20S
Albany         CLOUDY    62  32  32 S17G25    30.15F
$$

NJZ001-105-106-008-010-013-015-019>022-104-250100-
New Jersey

CITY           SKY/WX    TMP DP  RH WIND       PRES   REMARKS
Newark/Liberty CLOUDY    57  41  55 SE8       30.22F
Teterboro      CLOUDY    59  40  49 SE7       30.21S
Caldwell       FAIR      56  41  57 SE9       30.22S
Somerville     MOCLDY    56  45  66 E5        30.19S
Linden         MOCLDY    55  41  61 SE10G16   30.22F
Perth Amboy      N/A     54 N/A N/A E10         N/A
Sussex         MOCLDY    57  42  57 SE6       30.21S
Andover          N/A     55  42  61 VRB6      30.20S
Trenton        CLOUDY    57  45  64 E13       30.18F
Millville      LGT RAIN  55  49  80 E15       30.13F
Atlantic City  CLOUDY    56  51  84 E15G22    30.15F
Wrightstown    MOCLDY    56  46  69 E10       30.16
Toms River     CLOUDY    55  47  74 E9G18     30.19F
Belmar         LGT RAIN  52  46  80 E15       30.21F
$$

PAZ047>061-062-071-250100-
Eastern Pennsylvania

CITY           SKY/WX    TMP DP  RH WIND       PRES   REMARKS
Philadelphia   CLOUDY    58  45  62 E15       30.16F
Allentown      MOCLDY    60  42  51 E16       30.17S
Scranton       MOCLDY    58  40  51 VRB5      30.15S
$$

CTZ002-004>006-009-010-012-RIZ004-006-007-MAZ004-011-015-250100-
Southern New England

 In CT

CITY           SKY/WX    TMP DP  RH WIND       PRES   REMARKS
Bradley Intl   CLOUDY    58  38  47 S12       30.24R
Hartford       FAIR      58  39  49 S7        30.25R
Danbury        FAIR      56  40  55 S6        30.24F
Wtrbury/Oxford MOCLDY    54  40  59 S8        30.25S
Norwalk Harbor   N/A     50 N/A N/A SE12        N/A
Bridgeport     CLOUDY    55  40  56 SE9       30.25S
Meriden        FAIR      56  39  53 S5        30.25S
New Haven      CLOUDY    54  40  59 SE9       30.26S
Chester        MOCLDY    55  39  54 SE5       30.26S
Groton         MOCLDY    49  44  83 SE10      30.27S
Willimantic    FAIR      57  38  48 S7        30.26S

 In RI

CITY           SKY/WX    TMP DP  RH WIND       PRES   REMARKS
Providence     CLOUDY    52  42  69 S10       30.29S
Block Island   MOCLDY    50  41  71 SE13      30.29F
Westerly       FAIR      50  44  80 SE8       30.29S

In MA

CITY           SKY/WX    TMP DP  RH WIND       PRES   REMARKS
Boston         CLOUDY    55  31  39 S15       30.26S
Worcester      FAIR      53  37  54 S8        30.25R
Westfield      FAIR      58  37  45 S13       30.22S
Provincetown   FAIR      50  40  68 S12       30.30F
Nantucket      FAIR      45  44  97 SE8       30.32S
$$

ANZ330-335-338-340-345-350-353-355-250100-
Coastal Marine Observations


STATION/POSITION TIME  SKY/WX   TEMP    WIND        PRES    VSBY  WAVE
                                AIR SEA DIR/SP/G                  HT/PER
                 (UTC)          (F)     (DEG/KT/KT) (MB)    (MI)  (FT/S)
NY Harb Entrance 2350            50 47  110/ 14/ 16 1023.2          2/ 3
20 S Fire Island 2350            49 45  100/ 14/ 14 1023.4          2/ 8
23 SSW Montauk P 2350            48 45  130/ 12/ 14 1025.2          2/ 8
15 E Barnegat Li 2330               46                N/A           4/ 6
Hudson Canyon    2350            51 46   90/ 12/ 12 1022.6          5/ 6
Kings Point      2348            56 48  180/  8/ 15 1024.5
Execution Rocks  NOT AVBL
Western LI Sound NOT AVBL
Central LI Sound 2330            49     140/  6/  6   N/A           1
Robbins Reef     2342            56     120/ 15/ 19 1023.9
$$


>>>>>>>>>>>>>>>>>>>>>>>>>>>> KEY <<<<<<<<<<<<<<<<<<<<<<<<<<<
>                                                          <
>     SKY/WX - Sky Condition/Present Weather               <
>     TMP    - Temperature in Fahrenheit                   <
>     DP     - Dew Point in Fahrenheit                     <
>     RH     - Relative Humidity in Percent                <
>     WIND   - Direction (from) and Speed in MPH           <
>     PRES   - Mean Sea Level Pressure (inches of Hg)      <
>     WCI    - Wind Chill Index                            <
>     VSB    - Visibility in Miles                         <
>     HX     - Heat Index                                  <
>     TC     - Temperature in Celsius                      <
>     VRB    - Varibale Wind Direction                     <
>                                                          <
>>>>>>>>>>>>>>>>>>>>>>>>>>>> KEY <<<<<<<<<<<<<<<<<<<<<<<<<<<




USA.gov is the U.S. government's official web portal to all federal, state and local government web resources and services.